Погода в Пальмановой

Испания     39°31′38″N   2°32′21″E
темп.,
°C
ветер,
м/с
пор.,
м/с
влажн.,
%
обл.,
%
осадки,
мм/ч
давл.,
гПа
погр.,
м
27 июня, пн
пн2723:00+23ююз22680 0.0 1010105
02:00+23з22720 0.0 1011161
05:00+22ссз22740 0.0 1011132
08:00+23в11650 0.0 1012162
11:00+26ююв23530 0.0 1013615
14:00+27ююз44598 0.0 1014783
17:00+26ююв347464 0.1 1014569
20:00+25юз2278100 0.3 1014436
28 июня, вт
вт2823:00+23в2281100 1.8 1017190
02:00+22вюв118319 2.8 1016125
05:00+22всв227912 0.6 1017200
08:00+22сз337474 0.6 1017485
11:00+24зсз33630 0.0 1018695
14:00+25зсз54580 0.0 1018773
17:00+26зсз54480 0.0 1017638
20:00+24з33570 0.0 1017336
29 июня, ср
ср2923:00+22ююз22740 0.0 1017187
02:00+22ю23770 0.0 1017256
05:00+22ююв22780 0.0 1016312
08:00+23в22740 0.0 1016332
11:00+26ююв23540 0.0 1015607
14:00+27ю43550 0.0 1014726
17:00+26ю43580 0.0 1013702
20:00+25ююв22630 0.0 1012466
30 июня, чт
чт3023:00+23юв46790 0.0 1013325
02:00+22всв33810 0.0 1012156
05:00+22ссв22680 0.0 101179
08:00+23в33560 0.0 1011182
11:00+26юз22530 0.0 1012584
14:00+28зюз32520 0.0 1012714
17:00+28юз325541 0.0 1011572
20:00+26зюз11625 0.0 1011372
1 июля, пт
пт123:00+24ююв22753 0.0 101337
02:00+23ссз337778 0.0 1013127
05:00+22в44820 0.0 1013170
08:00+23св55770 0.0 1014341
11:00+26всв45580 0.0 1016975
14:00+28вюв34500 0.0 10171015
17:00+28ю23520 0.0 1016769
20:00+26вюв24560 0.0 1016496